GW6639 Weather Reports


time (UTC)temp
F
wind
direction
speed
knots
gust
knots
rain 1hr
in
rain 24hr
in
rain mn
in
humidity
%
barometer
mb
20260507200514 46 325 3.5 7.0 0.00 0.00 0.00 71 1014.1
20260507200008 46 329 3.5 6.1 0.00 0.00 0.00 72 1014.1
20260507195513 47 319 3.5 7.0 0.00 0.00 0.00 71 1014.1
20260507195007 48 314 3.5 5.2 0.00 0.00 0.00 69 1014.1
20260507194511 47 316 2.6 5.2 0.00 0.00 0.00 70 1014.1
20260507194007 47 311 3.5 7.0 0.00 0.00 0.00 72 1014.1
20260507193511 44 331 1.7 2.6 0.00 0.00 0.00 78 1014.1
20260507193015 44 322 3.5 7.0 0.00 0.00 0.00 75 1014.1
20260507192509 45 307 4.3 7.8 0.00 0.00 0.00 69 1014.1
20260507192015 46 335 1.7 3.5 0.00 0.00 0.00 67 1014.1
20260507191509 46 331 2.6 5.2 0.00 0.00 0.00 67 1014.1
20260507191013 47 318 2.6 6.1 0.00 0.00 0.00 66 1014.1
20260507190507 47 304 2.6 5.2 0.00 0.00 0.00 66 1014.1
20260507190012 48 318 3.5 6.1 0.00 0.00 0.00 66 1014.1
20260507185507 46 334 1.7 4.3 0.00 0.00 0.00 67 1014.1
20260507185011 45 330 1.7 3.5 0.00 0.00 0.00 69 1014.1
20260507184505 45 352 0.9 2.6 0.00 0.00 0.00 71 1014.1
20260507184010 43 330 2.6 4.3 0.00 0.00 0.00 73 1014.1
20260507183516 42 317 2.6 4.3 0.00 0.00 0.00 74 1014.1
20260507183010 42 322 2.6 5.2 0.00 0.00 0.00 75 1014.1
20260507182514 43 337 2.6 5.2 0.00 0.00 0.00 71 1014.1
20260507182008 44 322 3.5 7.0 0.00 0.00 0.00 69 1013.6
20260507181512 44 323 2.6 4.3 0.00 0.00 0.00 67 1014.1
20260507181008 45 328 2.6 4.3 0.00 0.00 0.00 66 1014.1
20260507180512 45 312 3.5 6.1 0.00 0.00 0.00 66 1013.6
20260507180006 45 324 3.5 5.2 0.00 0.00 0.00 66 1013.6
20260507175510 46 316 3.5 6.1 0.00 0.00 0.00 65 1013.6
20260507175007 46 310 3.5 5.2 0.00 0.00 0.00 65 1013.6
20260507174510 47 322 4.3 8.7 0.00 0.00 0.00 63 1013.6
20260507174015 46 323 4.3 7.0 0.00 0.00 0.00 63 1013.6
20260507173508 48 340 2.6 5.2 0.00 0.00 0.00 61 1013.6
20260507173012 50 328 3.5 7.0 0.00 0.00 0.00 58 1013.6
20260507172508 49 332 2.6 5.2 0.00 0.00 0.00 60 1013.6
20260507172012 48 314 5.2 10.4 0.00 0.00 0.00 60 1013.6
20260507171506 49 315 3.5 7.8 0.00 0.00 0.00 60 1013.6
20260507171011 48 314 3.5 6.1 0.00 0.00 0.00 61 1013.6
20260507170506 49 323 2.6 5.2 0.00 0.00 0.00 60 1013.6
20260507170010 48 315 3.5 6.1 0.00 0.00 0.00 62 1013.6
20260507165515 48 305 3.5 5.2 0.00 0.00 0.00 61 1013.6
20260507165009 49 353 1.7 2.6 0.00 0.00 0.00 61 1013.6
20260507164513 49 342 2.6 6.1 0.00 0.00 0.00 60 1013.6
20260507164008 48 329 1.7 5.2 0.00 0.00 0.00 62 1013.6
20260507163513 46 340 2.6 3.5 0.00 0.00 0.00 64 1013.6
20260507163007 46 326 2.6 5.2 0.00 0.00 0.00 64 1013.6
20260507162511 46 313 3.5 6.1 0.00 0.00 0.00 63 1013.6
20260507162005 47 333 3.5 5.2 0.00 0.00 0.00 62 1013.6
20260507161511 48 347 1.7 2.6 0.00 0.00 0.00 60 1013.6
20260507161015 47 344 1.7 4.3 0.00 0.00 0.00 62 1013.6
20260507160509 44 332 2.6 5.2 0.00 0.00 0.00 67 1013.6
20260507160014 43 340 3.5 7.0 0.00 0.00 0.00 67 1013.6
20260507155508 46 316 4.3 7.0 0.00 0.00 0.00 62 1013.6
20260507155013 46 333 1.7 3.5 0.00 0.00 0.00 61 1013.6
20260507154507 45 328 2.6 3.5 0.00 0.00 0.00 62 1013.6
20260507154013 44 321 2.6 6.1 0.00 0.00 0.00 63 1013.6
20260507153506 44 314 3.5 6.1 0.00 0.00 0.00 62 1013.6
20260507153011 44 325 2.6 4.3 0.00 0.00 0.00 60 1013.6
20260507152516 44 331 3.5 5.2 0.00 0.00 0.00 60 1013.6
20260507152010 44 335 4.3 7.8 0.00 0.00 0.00 59 1013.2
20260507151514 45 320 5.2 7.0 0.00 0.00 0.00 55 1013.2
20260507151009 47 318 5.2 7.8 0.00 0.00 0.00 51 1013.2
20260507150514 48 349 1.7 2.6 0.00 0.00 0.00 48 1013.6
20260507150008 46 336 2.6 5.2 0.00 0.00 0.00 48 1013.2
20260507145512 47 335 2.6 7.0 0.00 0.00 0.00 46 1013.6
20260507145006 46 320 3.5 7.0 0.00 0.00 0.00 44 1013.2
20260507144510 46 323 3.5 6.1 0.00 0.00 0.00 42 1013.2
20260507144006 46 348 1.7 3.5 0.00 0.00 0.00 42 1013.2
20260507143510 44 323 3.5 6.1 0.00 0.00 0.00 43 1013.2
20260507143015 43 325 3.5 7.0 0.00 0.00 0.00 43 1013.2
20260507142509 43 319 3.5 7.0 0.00 0.00 0.00 43 1013.2
20260507142013 44 313 5.2 7.8 0.00 0.00 0.00 43 1013.2
20260507141508 44 333 3.5 5.2 0.00 0.00 0.00 42 1013.2
20260507141013 43 339 2.6 5.2 0.00 0.00 0.00 43 1013.2
20260507140507 43 329 4.3 8.7 0.00 0.00 0.00 43 1013.2
20260507140011 44 330 3.5 5.2 0.00 0.00 0.00 43 1013.2
20260507135506 43 348 1.7 4.3 0.00 0.00 0.00 43 1013.2
20260507135011 42 337 3.5 4.3 0.00 0.00 0.00 44 1012.7
20260507134515 41 329 3.5 7.0 0.00 0.00 0.00 44 1012.7
20260507134009 41 344 2.6 3.5 0.00 0.00 0.00 45 1013.2
20260507133513 41 332 3.5 5.2 0.00 0.00 0.00 45 1012.7
20260507133009 41 335 3.5 6.1 0.00 0.00 0.00 46 1012.7
20260507132513 41 336 2.6 5.2 0.00 0.00 0.00 46 1012.7
20260507132007 40 330 3.5 6.1 0.00 0.00 0.00 47 1012.7
20260507131511 40 328 3.5 7.0 0.00 0.00 0.00 47 1012.7
20260507131007 39 320 3.5 6.1 0.00 0.00 0.00 48 1012.7
20260507130511 39 337 2.6 4.3 0.00 0.00 0.00 49 1012.7
20260507130016 38 343 2.6 4.3 0.00 0.00 0.00 50 1012.7
20260507125510 37 338 2.6 5.2 0.00 0.00 0.00 51 1012.3
20260507125016 37 335 3.5 5.2 0.00 0.00 0.00 51 1012.3
20260507124509 37 331 3.5 5.2 0.00 0.00 0.00 51 1012.3
20260507124014 38 328 3.5 5.2 0.00 0.00 0.00 51 1012.3
20260507123508 38 323 3.5 6.1 0.00 0.00 0.00 51 1012.3
20260507123012 38 324 4.3 7.0 0.00 0.00 0.00 51 1012.3
20260507122507 37 324 3.5 5.2 0.00 0.00 0.00 51 1011.8
20260507122012 37 330 3.5 5.2 0.00 0.00 0.00 52 1011.8
20260507121506 37 326 3.5 7.0 0.00 0.00 0.00 52 1011.8
20260507121010 36 324 4.3 7.0 0.00 0.00 0.00 52 1011.8
20260507120516 36 327 3.5 6.1 0.00 0.00 0.00 53 1011.8
20260507120010 36 323 3.5 5.2 0.00 0.00 0.00 53 1011.8
20260507115514 35 327 4.3 7.0 0.00 0.00 0.00 53 1011.8
20260507115008 35 320 4.3 7.0 0.00 0.00 0.00 53 1011.8
20260507114514 35 314 4.3 7.0 0.00 0.00 0.00 52 1011.8
20260507114008 35 321 5.2 7.0 0.00 0.00 0.00 52 1011.8
20260507113512 35 314 4.3 7.0 0.00 0.00 0.00 52 1011.8
20260507113006 35 326 3.5 5.2 0.00 0.00 0.00 52 1011.4
20260507112512 35 328 3.5 5.2 0.00 0.00 0.00 51 1011.4
20260507112006 35 329 4.3 6.1 0.00 0.00 0.00 50 1011.4
20260507111511 35 315 5.2 7.0 0.00 0.00 0.00 50 1011.4
20260507111015 35 320 5.2 7.0 0.00 0.00 0.00 49 1011.4
20260507110510 35 322 5.2 7.0 0.00 0.00 0.00 49 1011.4
20260507110015 35 312 4.3 9.6 0.00 0.00 0.00 49 1011.4
20260507105508 35 317 5.2 7.8 0.00 0.00 0.00 48 1011.4
20260507105013 35 317 5.2 7.0 0.00 0.00 0.00 48 1011.4
20260507104508 35 315 5.2 7.8 0.00 0.00 0.00 47 1011.4
20260507104012 35 318 5.2 7.8 0.00 0.00 0.00 47 1011.4
20260507103506 35 314 5.2 7.0 0.00 0.00 0.00 47 1011.4
20260507103011 35 315 5.2 7.8 0.00 0.00 0.00 47 1011.4
20260507102515 35 309 5.2 7.0 0.00 0.00 0.00 46 1011.0
20260507102010 35 322 4.3 6.1 0.00 0.00 0.00 46 1011.0
20260507101515 35 314 5.2 7.0 0.00 0.00 0.00 46 1011.0
20260507101009 35 318 5.2 7.0 0.00 0.00 0.00 46 1011.0
20260507100513 35 319 5.2 7.0 0.00 0.00 0.00 46 1011.0
20260507100008 35 311 5.2 7.0 0.00 0.00 0.00 46 1011.0
20260507095513 35 316 5.2 7.0 0.00 0.00 0.00 46 1011.0
20260507095007 35 313 5.2 7.8 0.00 0.00 0.00 45 1011.0
20260507094511 35 311 6.1 8.7 0.00 0.00 0.00 45 1011.0
20260507094007 35 312 5.2 9.6 0.00 0.00 0.00 46 1011.0
20260507093511 35 323 5.2 7.8 0.00 0.00 0.00 46 1011.0
20260507093015 35 315 5.2 7.0 0.00 0.00 0.00 46 1010.5
20260507092509 35 316 6.1 9.6 0.00 0.00 0.00 45 1011.0
20260507092015 35 306 5.2 7.8 0.00 0.00 0.00 45 1011.0
20260507091510 35 306 5.2 7.8 0.00 0.00 0.00 45 1011.0
20260507091013 35 313 5.2 7.8 0.00 0.00 0.00 45 1011.0
20260507090507 34 321 5.2 7.0 0.00 0.00 0.00 45 1010.5
20260507090012 34 319 5.2 9.6 0.00 0.00 0.00 44 1010.5
20260507085508 34 309 5.2 7.8 0.00 0.00 0.00 44 1010.5
20260507085011 34 309 5.2 7.0 0.00 0.00 0.00 44 1010.5
20260507084506 34 312 5.2 7.8 0.00 0.00 0.00 45 1010.5
20260507084011 34 306 5.2 7.0 0.00 0.00 0.00 44 1010.5
20260507083515 34 311 5.2 7.8 0.00 0.00 0.00 44 1010.5
20260507083009 34 305 5.2 7.0 0.00 0.00 0.00 44 1010.5
20260507082514 34 316 6.1 7.8 0.00 0.00 0.00 44 1010.5
20260507082008 34 312 6.1 7.8 0.00 0.00 0.00 44 1010.5
20260507081513 34 319 5.2 7.8 0.00 0.00 0.00 43 1010.5
20260507081008 33 306 5.2 7.0 0.00 0.00 0.00 44 1010.5
20260507080512 33 310 5.2 7.8 0.00 0.00 0.00 44 1010.5
20260507080007 33 308 5.2 7.8 0.00 0.00 0.00 44 1010.5
20260507075512 33 309 5.2 7.0 0.00 0.00 0.00 44 1011.0
20260507075006 33 308 5.2 7.0 0.00 0.00 0.00 45 1011.0
20260507074510 33 315 5.2 7.0 0.00 0.00 0.00 44 1011.0
20260507074014 33 305 5.2 7.0 0.00 0.00 0.00 44 1011.0
20260507073510 33 307 5.2 7.0 0.00 0.00 0.00 44 1011.0
20260507073014 33 310 5.2 7.0 0.00 0.00 0.00 44 1011.0
20260507072509 33 309 5.2 7.0 0.00 0.00 0.00 44 1011.0
20260507072014 33 302 5.2 7.0 0.00 0.00 0.00 44 1011.0
20260507071508 33 310 5.2 7.0 0.00 0.00 0.00 44 1011.4
20260507071012 32 316 5.2 6.1 0.00 0.00 0.00 44 1011.0
20260507070506 32 295 4.3 6.1 0.00 0.00 0.00 44 1011.0
20260507070013 33 310 5.2 7.0 0.00 0.00 0.00 44 1011.0
20260507065506 32 314 4.3 6.1 0.00 0.00 0.00 44 1011.4
20260507065010 33 305 5.2 7.0 0.00 0.00 0.00 44 1011.4
20260507064514 33 308 4.3 6.1 0.00 0.00 0.00 44 1011.4
20260507064008 32 301 5.2 7.0 0.00 0.00 0.00 44 1011.4
20260507063514 33 310 4.3 6.1 0.00 0.00 0.00 44 1011.4
20260507063008 33 307 4.3 5.2 0.00 0.00 0.00 44 1011.4
20260507062513 33 311 4.3 7.0 0.00 0.00 0.00 44 1011.4
20260507062006 33 311 4.3 6.1 0.00 0.00 0.00 44 1011.4
20260507061512 33 305 5.2 8.7 0.00 0.00 0.00 44 1011.4
20260507061006 33 310 4.3 6.1 0.00 0.00 0.00 43 1011.4
20260507060511 33 312 4.3 6.1 0.00 0.00 0.00 43 1011.4
20260507060009 33 314 5.2 7.0 0.00 0.00 0.00 43 1011.4
20260507055510 32 306 5.2 7.0 0.00 0.00 0.00 43 1011.8
20260507055014 32 306 4.3 7.8 0.00 0.00 0.00 44 1011.8
20260507054508 32 307 5.2 7.0 0.00 0.00 0.00 44 1011.8
20260507054014 32 308 4.3 6.1 0.00 0.00 0.00 44 1011.8
20260507053508 33 309 5.2 7.0 0.00 0.00 0.00 43 1011.8
20260507053013 33 311 4.3 6.1 0.00 0.00 0.00 43 1011.8
20260507052507 32 302 4.3 5.2 0.00 0.00 0.00 43 1011.8
20260507052012 32 303 4.3 7.0 0.00 0.00 0.00 43 1011.8
20260507051506 33 311 5.2 7.0 0.00 0.00 0.00 43 1011.8
20260507051012 32 309 4.3 7.0 0.00 0.00 0.00 43 1011.8
20260507050516 33 309 4.3 6.1 0.00 0.00 0.00 43 1011.8
20260507050011 32 303 4.3 5.2 0.00 0.00 0.00 43 1011.8
20260507045515 32 313 4.3 5.2 0.00 0.00 0.00 43 1011.8
20260507045009 32 305 4.3 5.2 0.00 0.00 0.00 43 1011.8
20260507044513 33 316 4.3 6.1 0.00 0.00 0.00 42 1012.3
20260507044008 33 302 5.2 7.0 0.00 0.00 0.00 42 1012.3
20260507043513 33 308 4.3 6.1 0.00 0.00 0.00 42 1012.3
20260507043007 33 314 4.3 5.2 0.00 0.00 0.00 42 1012.3
20260507042511 32 310 4.3 5.2 0.00 0.00 0.00 43 1012.3
20260507042008 32 315 3.5 4.3 0.00 0.00 0.00 43 1012.3
20260507041511 32 311 4.3 5.2 0.00 0.00 0.00 43 1012.3
20260507041015 33 311 4.3 5.2 0.00 0.00 0.00 42 1012.3
20260507040509 32 317 3.5 5.2 0.00 0.00 0.00 42 1012.7
20260507040026 32 313 3.5 4.3 0.00 0.00 0.00 43 1012.7
20260507035509 32 313 3.5 5.2 0.00 0.00 0.00 43 1012.7
20260507035013 32 309 3.5 4.3 0.00 0.00 0.00 43 1012.7
20260507034509 32 309 3.5 5.2 0.00 0.00 0.00 43 1012.7
20260507034013 32 320 3.5 4.3 0.00 0.00 0.00 43 1013.2
20260507033507 32 326 3.5 4.3 0.00 0.00 0.00 42 1013.2
20260507033011 32 325 3.5 5.2 0.00 0.00 0.00 42 1013.2
20260507032508 32 317 3.5 4.3 0.00 0.00 0.00 43 1013.2
20260507032011 32 316 3.5 4.3 0.00 0.00 0.00 42 1013.2
20260507031515 32 317 3.5 4.3 0.00 0.00 0.00 42 1013.2
20260507031009 32 319 3.5 4.3 0.00 0.00 0.00 42 1013.2
20260507030515 32 317 2.6 3.5 0.00 0.00 0.00 42 1013.2
20260507030009 32 312 2.6 3.5 0.00 0.00 0.00 42 1013.2
20260507025514 32 325 2.6 3.5 0.00 0.00 0.00 42 1013.2
20260507025008 32 321 2.6 3.5 0.00 0.00 0.00 42 1013.2
20260507024513 32 321 2.6 3.5 0.00 0.00 0.00 42 1013.2
20260507024007 32 324 2.6 3.5 0.00 0.00 0.00 42 1013.2
20260507023512 33 316 2.6 3.5 0.00 0.00 0.00 42 1013.2
20260507023006 33 315 2.6 3.5 0.00 0.00 0.00 41 1013.2
20260507022510 33 330 2.6 3.5 0.00 0.00 0.00 41 1013.2
20260507022017 33 330 1.7 3.5 0.00 0.00 0.00 41 1013.2
20260507021510 33 326 2.6 3.5 0.00 0.00 0.00 41 1013.2
20260507021014 33 329 1.7 3.5 0.00 0.00 0.00 40 1013.2
20260507020508 34 330 1.7 3.5 0.00 0.00 0.00 40 1013.2
20260507020014 34 324 2.6 4.3 0.00 0.00 0.00 39 1013.2
20260507015508 34 314 3.5 5.2 0.00 0.00 0.00 39 1013.2
20260507015012 34 325 2.6 5.2 0.00 0.00 0.00 40 1013.2
20260507014506 34 327 1.7 2.6 0.00 0.00 0.00 40 1013.2
20260507014012 34 331 2.6 4.3 0.00 0.00 0.00 40 1013.6
20260507013506 35 322 2.6 3.5 0.00 0.00 0.00 40 1013.2
20260507013010 35 320 2.6 3.5 0.00 0.00 0.00 40 1013.2
20260507012514 35 322 2.6 4.3 0.00 0.00 0.00 39 1013.2
20260507012010 36 320 1.7 4.3 0.00 0.00 0.00 39 1013.2
20260507011514 36 327 1.7 4.3 0.00 0.00 0.00 39 1013.2
20260507011008 36 298 2.6 5.2 0.00 0.00 0.00 38 1013.2
20260507010512 36 335 1.7 3.5 0.00 0.00 0.00 38 1013.2
20260507010007 36 327 1.7 2.6 0.00 0.00 0.00 38 1013.2
20260507005512 36 327 2.6 5.2 0.00 0.00 0.00 38 1013.2
20260507005007 36 335 0.9 2.6 0.00 0.00 0.00 37 1013.2
20260507004510 37 312 2.6 4.3 0.00 0.00 0.00 36 1013.2
20260507004015 37 339 1.7 6.1 0.00 0.00 0.00 36 1013.2
20260507003510 38 312 3.5 7.0 0.00 0.00 0.00 35 1013.2
20260507003014 38 316 2.6 4.3 0.00 0.00 0.00 34 1013.2
20260507002509 39 316 2.6 6.1 0.00 0.00 0.00 34 1013.6
20260507002013 38 306 2.6 5.2 0.00 0.00 0.00 34 1013.6
20260507001508 38 332 1.7 3.5 0.00 0.00 0.00 34 1013.6
20260507001013 38 342 1.7 4.3 0.00 0.00 0.00 35 1013.6
20260507000507 38 320 2.6 6.1 0.00 0.00 0.00 35 1014.1
20260507000034 38 330 2.6 4.3 0.00 0.00 0.00 35 1014.1
20260506235506 36 327 2.6 6.1 0.00 0.00 0.00 35 1014.1
20260506235011 37 327 1.7 3.5 0.00 0.00 0.00 35 1014.1
20260506234515 38 311 3.5 5.2 0.00 0.00 0.00 35 1014.1
20260506234009 38 319 2.6 7.0 0.00 0.00 0.00 35 1014.1
20260506233515 40 306 3.5 6.1 0.00 0.00 0.00 34 1014.1
20260506233009 38 323 2.6 6.1 0.00 0.00 0.00 35 1014.1
20260506232513 39 314 1.7 4.3 0.00 0.00 0.00 35 1014.1
20260506232007 38 313 1.7 3.5 0.00 0.00 0.00 36 1014.1
20260506231513 38 316 3.5 6.1 0.00 0.00 0.00 35 1014.5
20260506231007 40 321 2.6 4.3 0.00 0.00 0.00 35 1014.1
20260506230511 39 343 1.7 3.5 0.00 0.00 0.00 35 1014.1
20260506230005 40 307 5.2 7.8 0.00 0.00 0.00 34 1014.1
20260506225511 40 303 2.6 4.3 0.00 0.00 0.00 33 1014.1
20260506225015 41 336 1.7 3.5 0.00 0.00 0.00 33 1014.1
20260506224509 40 325 1.7 3.5 0.00 0.00 0.00 34 1014.1
20260506224014 40 331 1.7 3.5 0.00 0.00 0.00 34 1014.1
20260506223508 39 318 6.1 9.6 0.00 0.00 0.00 33 1014.1
20260506223013 39 333 2.6 6.1 0.00 0.00 0.00 35 1014.1
20260506222507 40 308 4.3 7.8 0.00 0.00 0.00 34 1014.1
20260506222012 42 316 3.5 7.0 0.00 0.00 0.00 34 1014.5
20260506221506 42 339 0.9 2.6 0.00 0.00 0.00 35 1014.5
20260506221011 41 326 2.6 4.3 0.00 0.00 0.00 36 1014.5
20260506220516 41 326 1.7 3.5 0.00 0.00 0.00 36 1014.5
20260506220010 39 327 0.9 2.6 0.00 0.00 0.00 35 1014.9
20260506215514 41 331 4.3 9.6 0.00 0.00 0.00 34 1014.5
20260506215008 40 338 0.9 2.6 0.00 0.00 0.00 36 1014.9
20260506214514 38 307 5.2 7.0 0.00 0.00 0.00 36 1014.9
20260506214008 40 331 3.5 7.0 0.00 0.00 0.00 35 1014.9
20260506213512 41 321 2.6 6.1 0.00 0.00 0.00 34 1014.9
20260506213008 40 321 3.5 7.0 0.00 0.00 0.00 34 1014.9
20260506212512 40 319 2.6 6.1 0.00 0.00 0.00 34 1014.9
20260506212006 41 327 2.6 5.2 0.00 0.00 0.00 34 1014.9
20260506211510 41 334 1.7 2.6 0.00 0.00 0.00 35 1014.9
20260506211015 41 317 2.6 4.3 0.00 0.00 0.00 34 1015.4
20260506210509 41 324 2.6 5.2 0.00 0.00 0.00 34 1015.4
20260506210014 41 314 2.6 5.2 0.00 0.00 0.00 35 1015.4
20260506205508 40 348 1.7 3.5 0.00 0.00 0.00 35 1015.4
20260506205013 41 294 3.5 6.1 0.00 0.00 0.00 36 1015.4
20260506204507 40 320 1.7 4.3 0.00 0.00 0.00 36 1015.4
20260506204013 40 315 3.5 6.1 0.00 0.00 0.00 36 1015.4
20260506203506 40 333 1.7 7.0 0.00 0.00 0.00 36 1015.4
20260506203011 39 333 1.7 3.5 0.00 0.00 0.00 36 1015.4
20260506202515 39 311 1.7 3.5 0.00 0.00 0.00 36 1015.4
20260506202009 40 326 2.6 5.2 0.00 0.00 0.00 34 1015.4
20260506201515 40 321 2.6 6.1 0.00 0.00 0.00 34 1015.4
20260506201009 41 257 2.6 5.2 0.00 0.00 0.00 36 1015.4